Home   Weather   Istres   Past weeks

Flag for France Past Weather in Istres, Provence-Alpes-Côte d'Azur, France — Yesterday and Last 2 Weeks

Now
91 °F

Passing clouds.


Feels Like: 89 °F
Forecast: 67 / 90 °F
Wind: 18 mph from Southwest

Location: Istres Airport

Current Time: Jul 28, 2017 at 5:19:19 pm

Latest Report: Jul 28, 2017 at 4:30 pm


Visibility: N/A

Pressure: 29.92 "Hg

Humidity: 26%

Dew Point: 52 °F

Location of IstresLocation

Past Weather in Istres — Graph

°F

Istres Temperature Yesterday

Maximum temperature yesterday: 90 °F (at 5:00 pm)
Minimum temperature yesterday: 70 °F (at 4:30 am)
Average temperature yesterday: 78 °F

High & Low Weather Summary for the Past Weeks

 TemperatureHumidityPressure
High91 °F (Jul 13, 5:00 pm)89% (Jul 22, 11:00 pm)30.15 "Hg (Jul 22, 11:00 pm)
Low63 °F (Jul 18, 6:00 am)13% (Jul 15, 7:30 pm)29.77 "Hg (Jul 26, 5:30 pm)
Average78 °F47%29.95 "Hg
* Reported Jul 13 4:00 pm — Jul 28 4:00 pm, Istres. Weather by CustomWeather, © 2017

Note: Actual official high and low records may vary slightly from our data, if they occured in-between our weather recording intervals... More about our weather records

Advertising

Istres Weather History for the Previous 24 Hours

Scroll right to see more
 ConditionsComfort  
Time TempWeatherWind HumidityBarometerVisibility
4:00 pm
Fri, Jul 28
91 °FSunny.20 mph24%29.92 "Hg10 mi
3:30 pm91 °FSunny.17 mph26%29.92 "Hg10 mi
3:00 pm91 °FPassing clouds.14 mph21%29.92 "HgN/A
2:30 pm91 °FPassing clouds.12 mph18%29.95 "HgN/A
2:00 pm88 °FPassing clouds.12 mph21%29.95 "HgN/A
1:30 pm90 °FPassing clouds.13 mph22%29.95 "HgN/A
1:00 pm90 °FPassing clouds.12 mph24%29.95 "HgN/A
12:30 pm88 °FPassing clouds.13 mph27%29.95 "HgN/A
12:00 pm86 °FPassing clouds.12 mph31%29.95 "HgN/A
11:30 am84 °FPassing clouds.13 mph33%29.95 "HgN/A
11:00 am84 °FPassing clouds.12 mph35%29.95 "HgN/A
10:30 am82 °FSunny.13 mph37%29.95 "Hg10 mi
10:00 am82 °FPassing clouds.14 mph37%29.95 "HgN/A
9:30 am81 °FSunny.13 mph42%29.95 "Hg10 mi
9:00 am79 °FWarm.15 mph48%29.95 "HgN/A
8:30 am77 °FSunny.17 mph51%29.95 "Hg10 mi
8:00 am75 °FSunny.8 mph61%29.95 "Hg10 mi
7:30 am72 °FSunny.7 mph73%29.95 "Hg10 mi
7:00 am70 °FSunny.5 mph73%29.95 "Hg10 mi
6:30 am72 °FSunny.9 mph69%29.95 "Hg10 mi
6:00 am72 °FClear.12 mph69%29.92 "Hg10 mi
5:30 am72 °FClear.12 mph69%29.92 "Hg10 mi
5:00 am72 °FClear.9 mph69%29.92 "Hg10 mi
4:30 am72 °FClear.7 mph69%29.92 "Hg10 mi
4:00 am73 °FClear.14 mph65%29.92 "Hg10 mi
3:30 am73 °FClear.8 mph65%29.92 "Hg10 mi
3:00 am73 °FClear.10 mph65%29.92 "Hg10 mi
2:30 am73 °FClear.13 mph65%29.92 "Hg10 mi
2:00 am75 °FClear.12 mph61%29.92 "Hg10 mi
1:30 am75 °FClear.9 mph57%29.92 "Hg10 mi
1:00 am75 °FClear.7 mph61%29.89 "Hg10 mi
12:30 am75 °FClear.9 mph65%29.89 "Hg10 mi
12:00 am73 °FPassing clouds.7 mph74%29.89 "HgN/A
11:30 pm
Thu, Jul 27
75 °FPassing clouds.6 mph69%29.89 "HgN/A
11:00 pm73 °FClear.7 mph74%29.89 "Hg10 mi
10:30 pm75 °FClear.7 mph69%29.89 "Hg10 mi
10:00 pm75 °FClear.6 mph65%29.86 "Hg10 mi
9:30 pm75 °FClear.9 mph65%29.86 "Hg10 mi
9:00 pm77 °FSunny.14 mph57%29.86 "Hg10 mi
8:30 pm79 °FSunny.10 mph54%29.86 "Hg10 mi
8:00 pm79 °FSunny.13 mph54%29.86 "Hg10 mi
7:30 pm82 °FSunny.16 mph45%29.83 "Hg10 mi
7:00 pm84 °FSunny.16 mph43%29.83 "Hg10 mi
6:30 pm84 °FSunny.16 mph43%29.83 "Hg10 mi
6:00 pm84 °FSunny.18 mph40%29.83 "Hg10 mi
5:30 pm88 °FSunny.17 mph33%29.83 "Hg10 mi
5:00 pm90 °FSunny.18 mph27%29.83 "Hg10 mi
Weather by CustomWeather, © 2017

See weather overviewHow to use our weather pages